ATLAS 5 CENTAUR DEB, 49361

Orbit data source: Space-Track

ATLAS 5 CENTAUR DEB, 49361 is space debris in HEO originally from a launch on Wed, 17 Oct 2018 UTC launched from the Air Force Eastern Test Range (AFETR). Debris objects in space refer to the collection of defunct objects orbiting the Earth. Examples of debris include non-operational satellites, rocket bodies, and fragments generated from explosions, collisions, or faulty payload assembly.

Loading next visibility...
Identifier
49361, 2018-079FN
Orbit
HEO
Country
Flag of USUS
Related business
Flag of USUnited Launch Alliance/Lockheed Martin (US)
Manufacturer
ULA Decatur
Mission
Spacecraft
Bus & Motor
Unknown
Mass
Unknown
Launch date (UTC)
2018-10-17 (7 years ago)
Launch vehicle
Unknown
Launch site
Air Force Eastern Test Range (AFETR)
Object type
Payload
Rocket body
Debris
Shape & HBR
Unknown shape, 1.1 m
Radar Cross Section
RCS unknown

Expand to show TLE details & history
Last TLE update: 8 months ago

TLE from 8 months ago
0 ATLAS 5 CENTAUR DEB
1 49361U 18079FN  25036.32047101 -.00000030  00000-0  00000-0 0  9996
2 49361  10.0518 132.1462 4969129 114.0317 304.5508  1.51852726 19075
Epoch: 2025-02-05T07:41Z
TLE epoch observation values (Epoch: 2025-02-05T07:41:28.695Z)
Latitude
-0°
Longitude
-119.04601°
Altitude
23,875.797 km
Speed
3.726 km/s
True Right ascension
08h 48m 08s
True Declination
0° 00' 00"
Sunlit
Object was in daylight at epoch
Visualization orbit readout
Latitude
Unknown
Longitude
Unknown
Altitude
Unknown
Speed
Unknown
Apparent Right ascension
Unknown
Apparent Declination
Unknown
Sunlit
N/A
Visualization observer readout
Local Sidereal Time
18:16:49
Azimuth
Unknown
Elevation
Unknown
Doppler factor
Unknown
Orbital elements
Apogee altitude
41,486.073 km
Perigee altitude
9,708.214 km
Semi-major axis
31,975.281 km
Eccentricity
0.49691
Inclination
10.0518°
RAAN
132.1462°
Arg. of periapsis
114.0317°
True anomaly
245.7792°
Mean anomaly
304.5508°
Eccentric anomaly
276.24895°
Mean motion
0.3796 °/min
Orbital period
948.38 mins
BSTAR
0
Loading maneuver chart data...
Computing Atmospheric mass density...

Documentation

Showing up to 5 results
|